Time,TemperatureF,DewpointF,PressureIn,WindDirection,WindDirectionDegrees,WindSpeedMPH,WindSpeedGustMPH,Humidity,HourlyPrecipIn,Conditions,Clouds,dailyrainin,SoftwareType,DateUTC
2013-01-13 00:02:00,41.8,40.5,30.14,SE,134,0.0,0.0,95,0.00,,,0.00,Wunderground v.1.15,2013-01-13 05:02:00,
2013-01-13 00:07:00,41.7,40.4,30.14,SE,134,0.0,0.0,95,0.00,,,0.00,Wunderground v.1.15,2013-01-13 05:07:00,
2013-01-13 00:12:00,41.5,40.2,30.14,SE,134,0.0,0.0,95,0.00,,,0.00,Wunderground v.1.15,2013-01-13 05:12:00,
2013-01-13 00:22:00,41.4,40.1,30.14,SE,134,0.0,0.0,95,0.00,,,0.00,Wunderground v.1.15,2013-01-13 05:22:00,
2013-01-13 00:26:00,41.3,40.0,30.14,SE,134,0.0,0.0,95,0.00,,,0.00,Wunderground v.1.15,2013-01-13 05:26:00,
2013-01-13 00:32:00,41.2,39.9,30.14,SE,134,0.0,0.0,95,0.00,,,0.00,Wunderground v.1.15,2013-01-13 05:32:00,
2013-01-13 00:37:00,41.1,39.8,30.14,SE,134,0.0,0.0,95,0.00,,,0.00,Wunderground v.1.15,2013-01-13 05:37:00,
2013-01-13 00:42:00,41.1,39.8,30.14,SE,134,0.0,0.0,95,0.00,,,0.00,Wunderground v.1.15,2013-01-13 05:42:00,
2013-01-13 00:52:00,41.0,39.7,30.14,SE,134,0.0,0.0,95,0.00,,,0.00,Wunderground v.1.15,2013-01-13 05:52:00,
2013-01-13 01:02:00,41.1,39.8,30.13,SE,134,0.0,0.0,95,0.00,,,0.00,Wunderground v.1.15,2013-01-13 06:02:00,
2013-01-13 01:07:00,41.1,39.8,30.13,SE,134,0.0,0.0,95,0.00,,,0.00,Wunderground v.1.15,2013-01-13 06:07:00,
2013-01-13 01:12:00,41.1,39.8,30.13,SE,134,0.0,0.0,95,0.00,,,0.00,Wunderground v.1.15,2013-01-13 06:12:00,
2013-01-13 01:22:00,41.2,39.9,30.13,SE,134,0.0,0.0,95,0.00,,,0.00,Wunderground v.1.15,2013-01-13 06:22:00,
2013-01-13 01:32:00,41.2,39.9,30.12,SE,134,0.0,0.0,95,0.00,,,0.00,Wunderground v.1.15,2013-01-13 06:32:00,
2013-01-13 01:37:00,41.3,40.0,30.12,SE,134,0.0,0.0,95,0.00,,,0.00,Wunderground v.1.15,2013-01-13 06:37:00,
2013-01-13 01:46:00,41.2,39.9,30.12,SE,134,0.0,0.0,95,0.00,,,0.00,Wunderground v.1.15,2013-01-13 06:46:00,
2013-01-13 01:52:00,41.1,39.8,30.12,SE,134,0.0,0.0,95,0.00,,,0.00,Wunderground v.1.15,2013-01-13 06:52:00,
2013-01-13 02:02:00,41.2,39.9,30.13,SE,134,0.0,2.0,95,0.00,,,0.00,Wunderground v.1.15,2013-01-13 07:02:00,
2013-01-13 02:12:00,41.5,40.4,30.13,SE,134,0.0,2.0,96,0.00,,,0.00,Wunderground v.1.15,2013-01-13 07:12:00,
2013-01-13 02:22:00,41.8,40.7,30.14,South,188,1.0,1.0,96,0.00,,,0.00,Wunderground v.1.15,2013-01-13 07:22:00,
2013-01-13 02:32:00,42.0,40.9,30.14,South,188,1.0,1.0,96,0.00,,,0.00,Wunderground v.1.15,2013-01-13 07:32:00,
2013-01-13 02:37:00,42.1,41.0,30.13,South,188,0.0,0.0,96,0.00,,,0.00,Wunderground v.1.15,2013-01-13 07:37:00,
2013-01-13 02:42:00,42.1,41.0,30.13,South,188,1.0,1.0,96,0.00,,,0.00,Wunderground v.1.15,2013-01-13 07:42:00,
2013-01-13 02:52:00,42.2,41.1,30.13,South,188,0.0,1.0,96,0.00,,,0.00,Wunderground v.1.15,2013-01-13 07:52:00,
2013-01-13 03:02:00,42.3,41.2,30.12,South,188,0.0,0.0,96,0.00,,,0.00,Wunderground v.1.15,2013-01-13 08:02:00,
2013-01-13 03:07:00,42.4,41.3,30.13,South,188,0.0,0.0,96,0.00,,,0.00,Wunderground v.1.15,2013-01-13 08:07:00,
2013-01-13 03:12:00,42.4,41.3,30.12,South,188,0.0,2.0,96,0.00,,,0.00,Wunderground v.1.15,2013-01-13 08:12:00,
2013-01-13 03:22:00,42.5,41.4,30.11,South,188,1.0,1.0,96,0.00,,,0.00,Wunderground v.1.15,2013-01-13 08:22:00,
2013-01-13 03:32:00,42.5,41.4,30.12,South,188,0.0,1.0,96,0.00,,,0.00,Wunderground v.1.15,2013-01-13 08:32:00,
2013-01-13 03:37:00,42.6,41.5,30.12,South,188,0.0,0.0,96,0.00,,,0.00,Wunderground v.1.15,2013-01-13 08:37:00,
2013-01-13 03:42:00,42.6,41.5,30.11,South,188,0.0,1.0,96,0.00,,,0.00,Wunderground v.1.15,2013-01-13 08:42:00,
2013-01-13 03:52:00,42.6,41.5,30.11,South,188,1.0,3.0,96,0.00,,,0.00,Wunderground v.1.15,2013-01-13 08:52:00,
2013-01-13 04:02:00,42.7,41.6,30.11,South,188,0.0,0.0,96,0.00,,,0.00,Wunderground v.1.15,2013-01-13 09:02:00,
2013-01-13 04:07:00,42.7,41.6,30.10,South,188,0.0,0.0,96,0.00,,,0.00,Wunderground v.1.15,2013-01-13 09:07:00,
2013-01-13 04:12:00,42.7,41.6,30.10,South,188,0.0,0.0,96,0.00,,,0.00,Wunderground v.1.15,2013-01-13 09:12:00,
2013-01-13 04:22:00,42.8,41.7,30.09,South,188,0.0,0.0,96,0.00,,,0.00,Wunderground v.1.15,2013-01-13 09:22:00,
2013-01-13 04:32:00,42.8,41.7,30.10,South,188,0.0,0.0,96,0.00,,,0.00,Wunderground v.1.15,2013-01-13 09:32:00,
2013-01-13 04:37:00,42.8,41.7,30.11,South,188,0.0,0.0,96,0.00,,,0.00,Wunderground v.1.15,2013-01-13 09:37:00,
2013-01-13 04:42:00,42.8,41.7,30.11,South,188,0.0,0.0,96,0.00,,,0.00,Wunderground v.1.15,2013-01-13 09:42:00,
2013-01-13 04:52:00,42.9,41.8,30.10,South,188,0.0,0.0,96,0.00,,,0.00,Wunderground v.1.15,2013-01-13 09:52:00,
2013-01-13 05:02:00,42.9,41.8,30.10,South,188,1.0,1.0,96,0.00,,,0.00,Wunderground v.1.15,2013-01-13 10:02:00,
2013-01-13 05:07:00,42.9,41.8,30.10,South,188,1.0,1.0,96,0.00,,,0.00,Wunderground v.1.15,2013-01-13 10:07:00,
2013-01-13 05:12:00,42.9,42.1,30.10,South,188,1.0,1.0,97,0.00,,,0.00,Wunderground v.1.15,2013-01-13 10:12:00,
2013-01-13 05:22:00,42.7,41.6,30.10,South,190,2.0,2.0,96,0.00,,,0.00,Wunderground v.1.15,2013-01-13 10:22:00,
2013-01-13 05:32:00,42.5,41.4,30.09,South,183,2.0,2.0,96,0.00,,,0.00,Wunderground v.1.15,2013-01-13 10:32:00,
2013-01-13 05:37:00,42.5,41.4,30.10,South,183,2.0,2.0,96,0.00,,,0.00,Wunderground v.1.15,2013-01-13 10:37:00,
2013-01-13 05:42:00,42.4,41.3,30.11,South,183,1.0,2.0,96,0.00,,,0.00,Wunderground v.1.15,2013-01-13 10:42:00,
2013-01-13 05:52:00,42.4,41.3,30.10,South,183,2.0,2.0,96,0.00,,,0.00,Wunderground v.1.15,2013-01-13 10:52:00,
2013-01-13 06:02:00,42.5,41.4,30.10,South,182,2.0,2.0,96,0.00,,,0.00,Wunderground v.1.15,2013-01-13 11:02:00,
2013-01-13 06:12:00,42.6,41.5,30.10,South,181,2.0,2.0,96,0.00,,,0.00,Wunderground v.1.15,2013-01-13 11:12:00,
2013-01-13 06:22:00,42.7,41.6,30.10,South,179,1.0,2.0,96,0.00,,,0.00,Wunderground v.1.15,2013-01-13 11:22:00,
2013-01-13 06:32:00,42.8,42.0,30.10,South,179,2.0,2.0,97,0.00,,,0.00,Wunderground v.1.15,2013-01-13 11:32:00,
2013-01-13 06:37:00,42.9,42.1,30.10,South,179,2.0,4.0,97,0.00,,,0.00,Wunderground v.1.15,2013-01-13 11:37:00,
2013-01-13 06:42:00,43.0,42.2,30.10,South,181,2.0,4.0,97,0.00,,,0.00,Wunderground v.1.15,2013-01-13 11:42:00,
2013-01-13 06:57:00,43.1,42.3,30.10,South,179,2.0,2.0,97,0.00,,,0.00,Wunderground v.1.15,2013-01-13 11:57:00,
2013-01-13 07:02:00,43.1,42.3,30.10,South,177,2.0,2.0,97,0.00,,,0.00,Wunderground v.1.15,2013-01-13 12:02:00,
2013-01-13 07:07:00,43.1,42.3,30.11,South,188,2.0,2.0,97,0.00,,,0.00,Wunderground v.1.15,2013-01-13 12:07:00,
2013-01-13 07:17:00,43.1,42.3,30.11,South,179,3.0,7.0,97,0.00,,,0.00,Wunderground v.1.15,2013-01-13 12:17:00,
2013-01-13 07:26:00,43.1,42.3,30.11,South,182,4.0,7.0,97,0.00,,,0.00,Wunderground v.1.15,2013-01-13 12:26:00,
2013-01-13 07:32:00,43.2,42.4,30.10,SSE,163,3.0,3.0,97,0.00,,,0.00,Wunderground v.1.15,2013-01-13 12:32:00,
2013-01-13 07:37:00,43.2,42.4,30.10,South,172,4.0,4.0,97,0.00,,,0.00,Wunderground v.1.15,2013-01-13 12:37:00,
2013-01-13 07:42:00,43.3,42.5,30.11,South,180,4.0,4.0,97,0.00,,,0.00,Wunderground v.1.15,2013-01-13 12:42:00,
2013-01-13 07:52:00,43.3,42.5,30.11,SSE,167,3.0,5.0,97,0.00,,,0.00,Wunderground v.1.15,2013-01-13 12:52:00,
2013-01-13 08:02:00,43.4,42.6,30.11,South,184,3.0,3.0,97,0.00,,,0.00,Wunderground v.1.15,2013-01-13 13:02:00,
2013-01-13 08:07:00,43.4,42.6,30.11,South,186,2.0,6.0,97,0.00,,,0.00,Wunderground v.1.15,2013-01-13 13:07:00,
2013-01-13 08:12:00,43.4,42.6,30.11,South,181,3.0,3.0,97,0.00,,,0.00,Wunderground v.1.15,2013-01-13 13:12:00,
2013-01-13 08:22:00,43.6,42.8,30.10,South,177,4.0,5.0,97,0.00,,,0.00,Wunderground v.1.15,2013-01-13 13:22:00,
2013-01-13 08:32:00,43.8,43.0,30.11,South,178,3.0,3.0,97,0.00,,,0.00,Wunderground v.1.15,2013-01-13 13:32:00,
2013-01-13 08:37:00,43.8,43.0,30.12,South,178,2.0,2.0,97,0.00,,,0.00,Wunderground v.1.15,2013-01-13 13:37:00,
2013-01-13 08:42:00,43.8,43.0,30.12,South,179,2.0,2.0,97,0.00,,,0.00,Wunderground v.1.15,2013-01-13 13:42:00,
2013-01-13 08:52:00,43.9,43.1,30.12,South,180,2.0,3.0,97,0.00,,,0.00,Wunderground v.1.15,2013-01-13 13:52:00,
2013-01-13 09:02:00,44.1,43.3,30.13,South,190,3.0,3.0,97,0.00,,,0.00,Wunderground v.1.15,2013-01-13 14:02:00,
2013-01-13 09:07:00,44.1,43.3,30.13,South,171,3.0,3.0,97,0.00,,,0.00,Wunderground v.1.15,2013-01-13 14:07:00,
2013-01-13 09:16:00,44.1,43.3,30.13,South,171,1.0,3.0,97,0.00,,,0.00,Wunderground v.1.15,2013-01-13 14:16:00,
2013-01-13 09:22:00,44.1,43.3,30.13,South,171,1.0,3.0,97,0.00,,,0.00,Wunderground v.1.15,2013-01-13 14:22:00,
2013-01-13 09:32:00,44.0,43.2,30.13,South,173,4.0,4.0,97,0.00,,,0.00,Wunderground v.1.15,2013-01-13 14:32:00,
2013-01-13 09:42:00,44.1,43.3,30.13,South,178,3.0,3.0,97,0.00,,,0.00,Wunderground v.1.15,2013-01-13 14:42:00,
2013-01-13 09:52:00,44.3,43.5,30.12,South,175,3.0,9.0,97,0.00,,,0.00,Wunderground v.1.15,2013-01-13 14:52:00,
2013-01-13 10:02:00,44.3,43.5,30.12,SSE,165,5.0,5.0,97,0.00,,,0.00,Wunderground v.1.15,2013-01-13 15:02:00,
2013-01-13 10:12:00,44.3,43.5,30.12,South,175,4.0,7.0,97,0.00,,,0.00,Wunderground v.1.15,2013-01-13 15:12:00,
2013-01-13 10:22:00,44.2,43.4,30.13,South,175,5.0,5.0,97,0.00,,,0.00,Wunderground v.1.15,2013-01-13 15:22:00,
2013-01-13 10:32:00,44.5,43.7,30.14,South,176,3.0,4.0,97,0.00,,,0.00,Wunderground v.1.15,2013-01-13 15:32:00,
2013-01-13 10:37:00,44.7,43.9,30.14,South,176,3.0,3.0,97,0.00,,,0.00,Wunderground v.1.15,2013-01-13 15:37:00,
2013-01-13 10:42:00,44.9,44.1,30.14,South,176,1.0,3.0,97,0.00,,,0.00,Wunderground v.1.15,2013-01-13 15:42:00,
2013-01-13 10:52:00,44.9,44.1,30.14,South,176,1.0,2.0,97,0.00,,,0.00,Wunderground v.1.15,2013-01-13 15:52:00,
2013-01-13 11:02:00,45.0,44.2,30.14,South,176,0.0,0.0,97,0.00,,,0.00,Wunderground v.1.15,2013-01-13 16:02:00,
2013-01-13 11:07:00,45.0,44.2,30.14,South,176,1.0,1.0,97,0.00,,,0.00,Wunderground v.1.15,2013-01-13 16:07:00,
2013-01-13 11:12:00,45.0,44.2,30.13,South,175,2.0,5.0,97,0.00,,,0.00,Wunderground v.1.15,2013-01-13 16:12:00,
2013-01-13 11:22:00,45.0,44.2,30.13,South,175,2.0,5.0,97,0.00,,,0.00,Wunderground v.1.15,2013-01-13 16:22:00,
2013-01-13 11:32:00,45.1,44.3,30.12,South,175,1.0,3.0,97,0.00,,,0.00,Wunderground v.1.15,2013-01-13 16:32:00,
2013-01-13 11:37:00,45.3,44.5,30.11,South,170,1.0,5.0,97,0.00,,,0.00,Wunderground v.1.15,2013-01-13 16:37:00,
2013-01-13 11:42:00,45.0,44.2,30.10,South,187,4.0,5.0,97,0.00,,,0.00,Wunderground v.1.15,2013-01-13 16:42:00,
2013-01-13 11:52:00,45.1,44.3,30.09,South,173,3.0,3.0,97,0.00,,,0.00,Wunderground v.1.15,2013-01-13 16:52:00,
2013-01-13 12:02:00,45.4,44.6,30.08,South,170,4.0,7.0,97,0.00,,,0.00,Wunderground v.1.15,2013-01-13 17:02:00,
2013-01-13 12:07:00,45.4,44.6,30.08,South,170,5.0,7.0,97,0.00,,,0.00,Wunderground v.1.15,2013-01-13 17:07:00,
2013-01-13 12:12:00,45.5,44.7,30.08,South,182,4.0,4.0,97,0.00,,,0.00,Wunderground v.1.15,2013-01-13 17:12:00,
2013-01-13 12:22:00,45.8,45.0,30.08,South,175,3.0,5.0,97,0.00,,,0.00,Wunderground v.1.15,2013-01-13 17:22:00,
2013-01-13 12:32:00,45.8,45.0,30.07,South,173,5.0,5.0,97,0.00,,,0.00,Wunderground v.1.15,2013-01-13 17:32:00,
2013-01-13 12:37:00,46.0,45.2,30.07,South,173,3.0,3.0,97,0.00,,,0.00,Wunderground v.1.15,2013-01-13 17:37:00,
2013-01-13 12:42:00,46.2,45.4,30.06,South,182,2.0,3.0,97,0.00,,,0.00,Wunderground v.1.15,2013-01-13 17:42:00,
2013-01-13 12:52:00,46.0,45.2,30.06,South,175,5.0,5.0,97,0.00,,,0.00,Wunderground v.1.15,2013-01-13 17:52:00,
2013-01-13 13:02:00,46.2,45.4,30.06,SSW,208,3.0,3.0,97,0.00,,,0.00,Wunderground v.1.15,2013-01-13 18:02:00,
2013-01-13 13:12:00,46.3,45.5,30.06,SSE,166,4.0,4.0,97,0.00,,,0.00,Wunderground v.1.15,2013-01-13 18:12:00,
2013-01-13 13:22:00,46.3,45.5,30.06,South,184,3.0,4.0,97,0.00,,,0.00,Wunderground v.1.15,2013-01-13 18:22:00,
2013-01-13 13:32:00,46.5,45.7,30.06,South,175,3.0,8.0,97,0.00,,,0.00,Wunderground v.1.15,2013-01-13 18:32:00,
2013-01-13 13:37:00,46.5,45.7,30.05,SSE,167,3.0,3.0,97,0.00,,,0.00,Wunderground v.1.15,2013-01-13 18:37:00,
2013-01-13 13:46:00,46.5,45.7,30.05,South,184,4.0,7.0,97,0.00,,,0.00,Wunderground v.1.15,2013-01-13 18:46:00,
2013-01-13 13:52:00,46.6,45.8,30.06,SSW,200,3.0,7.0,97,0.00,,,0.00,Wunderground v.1.15,2013-01-13 18:52:00,
2013-01-13 14:07:00,46.5,45.7,30.05,South,186,4.0,4.0,97,0.00,,,0.00,Wunderground v.1.15,2013-01-13 19:07:00,
2013-01-13 14:12:00,46.6,45.8,30.05,SSW,192,3.0,4.0,97,0.00,,,0.00,Wunderground v.1.15,2013-01-13 19:12:00,
2013-01-13 14:22:00,46.7,46.2,30.05,South,172,3.0,7.0,98,0.00,,,0.00,Wunderground v.1.15,2013-01-13 19:22:00,
2013-01-13 14:32:00,46.9,46.4,30.05,South,180,4.0,4.0,98,0.00,,,0.00,Wunderground v.1.15,2013-01-13 19:32:00,
2013-01-13 14:37:00,47.0,46.2,30.05,South,180,3.0,3.0,97,0.00,,,0.00,Wunderground v.1.15,2013-01-13 19:37:00,
2013-01-13 14:42:00,47.1,46.3,30.05,South,184,2.0,3.0,97,0.00,,,0.00,Wunderground v.1.15,2013-01-13 19:42:00,
2013-01-13 14:52:00,47.3,46.8,30.06,South,184,1.0,1.0,98,0.00,,,0.00,Wunderground v.1.15,2013-01-13 19:52:00,
2013-01-13 15:02:00,47.3,46.8,30.06,South,184,2.0,3.0,98,0.00,,,0.00,Wunderground v.1.15,2013-01-13 20:02:00,
2013-01-13 15:12:00,47.2,46.4,30.06,South,183,3.0,4.0,97,0.00,,,0.00,Wunderground v.1.15,2013-01-13 20:12:00,
2013-01-13 15:22:00,47.4,46.9,30.05,South,183,2.0,3.0,98,0.00,,,0.00,Wunderground v.1.15,2013-01-13 20:22:00,
2013-01-13 15:32:00,47.3,46.5,30.05,South,175,3.0,3.0,97,0.00,,,0.00,Wunderground v.1.15,2013-01-13 20:32:00,
2013-01-13 15:37:00,47.3,46.5,30.05,South,173,2.0,2.0,97,0.00,,,0.00,Wunderground v.1.15,2013-01-13 20:37:00,
2013-01-13 15:42:00,47.2,46.4,30.05,South,173,2.0,2.0,97,0.00,,,0.00,Wunderground v.1.15,2013-01-13 20:42:00,
2013-01-13 15:52:00,47.3,46.5,30.05,South,176,1.0,1.0,97,0.00,,,0.00,Wunderground v.1.15,2013-01-13 20:52:00,
2013-01-13 16:02:00,47.4,46.9,30.05,South,176,3.0,4.0,98,0.00,,,0.00,Wunderground v.1.15,2013-01-13 21:02:00,
2013-01-13 16:07:00,47.4,46.9,30.05,South,175,3.0,4.0,98,0.00,,,0.00,Wunderground v.1.15,2013-01-13 21:07:00,
2013-01-13 16:16:00,47.4,46.9,30.05,South,175,3.0,3.0,98,0.00,,,0.00,Wunderground v.1.15,2013-01-13 21:16:00,
2013-01-13 16:22:00,47.4,46.9,30.05,South,175,2.0,2.0,98,0.00,,,0.00,Wunderground v.1.15,2013-01-13 21:22:00,
2013-01-13 16:32:00,47.6,47.1,30.04,South,178,3.0,3.0,98,0.00,,,0.00,Wunderground v.1.15,2013-01-13 21:32:00,
2013-01-13 16:37:00,47.7,47.2,30.04,South,177,3.0,3.0,98,0.00,,,0.00,Wunderground v.1.15,2013-01-13 21:37:00,
2013-01-13 16:42:00,47.7,47.2,30.04,South,177,2.0,3.0,98,0.00,,,0.00,Wunderground v.1.15,2013-01-13 21:42:00,
2013-01-13 16:52:00,48.0,47.5,30.04,South,176,3.0,4.0,98,0.00,,,0.00,Wunderground v.1.15,2013-01-13 21:52:00,
2013-01-13 17:02:00,48.1,47.6,30.04,South,185,2.0,2.0,98,0.00,,,0.00,Wunderground v.1.15,2013-01-13 22:02:00,
2013-01-13 17:07:00,48.1,47.6,30.04,South,178,1.0,2.0,98,0.00,,,0.00,Wunderground v.1.15,2013-01-13 22:07:00,
2013-01-13 17:16:00,48.2,47.7,30.04,South,178,2.0,2.0,98,0.00,,,0.00,Wunderground v.1.15,2013-01-13 22:16:00,
2013-01-13 17:22:00,48.2,47.7,30.04,South,178,2.0,2.0,98,0.00,,,0.00,Wunderground v.1.15,2013-01-13 22:22:00,
2013-01-13 17:32:00,48.2,47.7,30.04,South,178,1.0,1.0,98,0.00,,,0.00,Wunderground v.1.15,2013-01-13 22:32:00,
2013-01-13 17:42:00,48.2,47.7,30.04,South,179,1.0,4.0,98,0.00,,,0.00,Wunderground v.1.15,2013-01-13 22:42:00,
2013-01-13 17:52:00,48.2,47.7,30.05,South,179,1.0,4.0,98,0.00,,,0.00,Wunderground v.1.15,2013-01-13 22:52:00,
2013-01-13 18:02:00,48.2,47.7,30.05,South,180,1.0,1.0,98,0.00,,,0.00,Wunderground v.1.15,2013-01-13 23:02:00,
2013-01-13 18:07:00,48.3,47.8,30.05,South,180,1.0,1.0,98,0.00,,,0.00,Wunderground v.1.15,2013-01-13 23:07:00,
2013-01-13 18:12:00,48.3,47.8,30.05,South,180,1.0,1.0,98,0.00,,,0.00,Wunderground v.1.15,2013-01-13 23:12:00,
2013-01-13 18:22:00,48.3,47.8,30.04,South,180,1.0,1.0,98,0.00,,,0.00,Wunderground v.1.15,2013-01-13 23:22:00,
2013-01-13 18:32:00,48.3,47.8,30.04,South,180,1.0,1.0,98,0.00,,,0.00,Wunderground v.1.15,2013-01-13 23:32:00,
2013-01-13 18:37:00,48.3,47.8,30.04,South,180,1.0,1.0,98,0.00,,,0.00,Wunderground v.1.15,2013-01-13 23:37:00,
2013-01-13 18:42:00,48.3,47.8,30.04,South,180,1.0,1.0,98,0.00,,,0.00,Wunderground v.1.15,2013-01-13 23:42:00,
2013-01-13 18:52:00,48.3,47.8,30.04,South,180,0.0,1.0,98,0.00,,,0.00,Wunderground v.1.15,2013-01-13 23:52:00,
2013-01-13 19:02:00,48.3,47.8,30.03,South,180,0.0,0.0,98,0.00,,,0.00,Wunderground v.1.15,2013-01-14 00:02:00,
2013-01-13 19:07:00,48.3,47.8,30.04,South,180,0.0,0.0,98,0.00,,,0.00,Wunderground v.1.15,2013-01-14 00:07:00,
2013-01-13 19:12:00,48.4,47.9,30.03,South,180,0.0,0.0,98,0.00,,,0.00,Wunderground v.1.15,2013-01-14 00:12:00,
2013-01-13 19:26:00,48.3,47.8,30.03,South,180,0.0,0.0,98,0.00,,,0.00,Wunderground v.1.15,2013-01-14 00:26:00,
2013-01-13 19:32:00,48.3,47.8,30.03,South,180,0.0,1.0,98,0.00,,,0.00,Wunderground v.1.15,2013-01-14 00:32:00,
2013-01-13 19:37:00,48.3,47.8,30.03,South,180,1.0,1.0,98,0.00,,,0.00,Wunderground v.1.15,2013-01-14 00:37:00,
2013-01-13 19:42:00,48.4,47.9,30.02,South,180,1.0,2.0,98,0.00,,,0.00,Wunderground v.1.15,2013-01-14 00:42:00,
2013-01-13 19:52:00,48.4,47.9,30.02,South,180,1.0,2.0,98,0.00,,,0.00,Wunderground v.1.15,2013-01-14 00:52:00,
2013-01-13 20:02:00,48.5,48.0,30.02,South,178,3.0,3.0,98,0.00,,,0.00,Wunderground v.1.15,2013-01-14 01:02:00,
2013-01-13 20:12:00,48.6,48.1,30.01,SSE,168,2.0,8.0,98,0.00,,,0.00,Wunderground v.1.15,2013-01-14 01:12:00,
2013-01-13 20:22:00,48.6,48.1,30.01,South,176,3.0,6.0,98,0.00,,,0.00,Wunderground v.1.15,2013-01-14 01:22:00,
2013-01-13 20:32:00,48.5,48.0,30.01,South,173,3.0,6.0,98,0.00,,,0.00,Wunderground v.1.15,2013-01-14 01:32:00,
2013-01-13 20:37:00,48.4,47.9,30.01,South,173,2.0,4.0,98,0.00,,,0.00,Wunderground v.1.15,2013-01-14 01:37:00,
2013-01-13 20:42:00,48.5,48.0,30.01,South,173,2.0,4.0,98,0.00,,,0.00,Wunderground v.1.15,2013-01-14 01:42:00,
2013-01-13 20:52:00,48.6,48.1,30.01,South,180,2.0,3.0,98,0.00,,,0.00,Wunderground v.1.15,2013-01-14 01:52:00,
2013-01-13 21:02:00,48.6,48.1,30.00,South,180,1.0,1.0,98,0.00,,,0.00,Wunderground v.1.15,2013-01-14 02:02:00,
2013-01-13 21:07:00,48.7,48.2,30.00,South,180,1.0,2.0,98,0.00,,,0.00,Wunderground v.1.15,2013-01-14 02:07:00,
2013-01-13 21:12:00,48.8,48.3,30.00,South,180,2.0,2.0,98,0.00,,,0.00,Wunderground v.1.15,2013-01-14 02:12:00,
2013-01-13 21:22:00,48.8,48.3,30.00,South,184,1.0,1.0,98,0.00,,,0.00,Wunderground v.1.15,2013-01-14 02:22:00,
2013-01-13 21:32:00,48.7,48.2,30.00,South,184,1.0,3.0,98,0.00,,,0.00,Wunderground v.1.15,2013-01-14 02:32:00,
2013-01-13 21:37:00,48.7,48.2,30.00,South,184,1.0,3.0,98,0.00,,,0.00,Wunderground v.1.15,2013-01-14 02:37:00,
2013-01-13 21:42:00,48.6,48.1,29.99,South,184,0.0,3.0,98,0.00,,,0.00,Wunderground v.1.15,2013-01-14 02:42:00,
2013-01-13 21:52:00,48.7,48.2,29.99,South,184,1.0,1.0,98,0.00,,,0.00,Wunderground v.1.15,2013-01-14 02:52:00,
2013-01-13 22:02:00,48.7,48.2,29.99,South,184,0.0,0.0,98,0.00,,,0.00,Wunderground v.1.15,2013-01-14 03:02:00,
2013-01-13 22:12:00,48.7,48.2,29.99,South,184,0.0,1.0,98,0.00,,,0.00,Wunderground v.1.15,2013-01-14 03:12:00,
2013-01-13 22:22:00,48.8,48.3,29.99,South,184,0.0,0.0,98,0.00,,,0.00,Wunderground v.1.15,2013-01-14 03:22:00,
2013-01-13 22:32:00,48.8,48.3,29.99,South,184,1.0,1.0,98,0.00,,,0.00,Wunderground v.1.15,2013-01-14 03:32:00,
2013-01-13 22:37:00,48.9,48.4,30.00,South,184,1.0,1.0,98,0.00,,,0.00,Wunderground v.1.15,2013-01-14 03:37:00,
2013-01-13 22:42:00,48.9,48.4,30.00,South,184,0.0,1.0,98,0.00,,,0.00,Wunderground v.1.15,2013-01-14 03:42:00,
2013-01-13 22:52:00,48.8,48.3,29.99,South,184,0.0,0.0,98,0.00,,,0.00,Wunderground v.1.15,2013-01-14 03:52:00,
2013-01-13 23:02:00,48.8,48.3,29.99,South,184,0.0,0.0,98,0.00,,,0.00,Wunderground v.1.15,2013-01-14 04:02:00,
2013-01-13 23:07:00,48.7,48.2,29.99,South,184,0.0,2.0,98,0.00,,,0.00,Wunderground v.1.15,2013-01-14 04:07:00,
2013-01-13 23:12:00,48.7,48.2,29.99,South,184,0.0,0.0,98,0.00,,,0.00,Wunderground v.1.15,2013-01-14 04:12:00,
2013-01-13 23:22:00,48.7,48.2,29.99,South,184,0.0,1.0,98,0.00,,,0.00,Wunderground v.1.15,2013-01-14 04:22:00,
2013-01-13 23:32:00,48.7,48.2,29.99,South,184,1.0,1.0,98,0.00,,,0.00,Wunderground v.1.15,2013-01-14 04:32:00,
2013-01-13 23:37:00,48.6,48.1,29.99,South,184,0.0,0.0,98,0.00,,,0.00,Wunderground v.1.15,2013-01-14 04:37:00,
2013-01-13 23:42:00,48.5,48.0,29.99,South,184,0.0,0.0,98,0.00,,,0.00,Wunderground v.1.15,2013-01-14 04:42:00,
2013-01-13 23:52:00,48.4,47.9,29.99,South,184,0.0,0.0,98,0.00,,,0.00,Wunderground v.1.15,2013-01-14 04:52:00,